{"data":{"norad_id":43603,"intl_designator":"2018-067B","name":"BEIDOU-3 M11 (C25)","alt_names":[],"object_type":"PAYLOAD","status":"ACTIVE","operator":null,"country":"PRC","launch_date":"2018-08-24","launch_site_code":"XICLF","launch_vehicle":null,"mission":null,"orbit_class":"UNKNOWN","rcs_meters":null,"size_class":null,"mass_kg":null,"dimensions":null,"purposes":["nav"],"wikipedia_slug":null,"has_3d_model":false,"image_url":null,"decayed_at":null,"tle_current":{"epoch":"2026-09-19T00:17:28.428576Z","epoch_age_seconds":143079,"freshness":"FRESH","line1":"1 43603U 18067B   26262.01213459 -.00000025  00000+0  00000+0 0  9997","line2":"2 43603  54.1754 177.8234 0005362  26.2544 333.7964  1.86227188 54899","mean_motion":1.86227188,"eccentricity":0.0005362,"inclination_deg":54.1754,"raan_deg":177.8234,"arg_perigee_deg":26.2544,"mean_anomaly_deg":333.7964,"bstar":0,"rev_number":5489,"period_min":773.24907037741,"perigee_km":21513.468879489,"apogee_km":21543.395884495,"semimajor_km":27906.569381992,"source":"CELESTRAK","updated_at":"2026-09-20T09:00:46.709423Z"}}}